HB9EYW-6 Weather Reports


time (UTC)temp
C
wind
direction
speed
KPH
gust
KPH
rain 1hr
cm
rain 24hr
cm
rain mn
cm
humidity
%
barometer
mb
20260502232003 16 148 0.0 3.2 0.00 0.00 0.00 41
20260502231503 16 139 0.0 3.2 0.00 0.00 0.00 41
20260502231003 16 133 0.0 3.2 0.00 0.00 0.00 41
20260502230503 17 139 0.0 3.2 0.00 0.00 0.00 40
20260502230003 17 149 0.0 3.2 0.00 0.00 0.00 40
20260502225503 17 152 0.0 3.2 0.00 0.00 0.00 39
20260502225003 17 143 0.0 3.2 0.00 0.00 0.00 39
20260502224503 17 132 0.0 3.2 0.00 0.00 0.00 38
20260502224003 17 121 1.6 3.2 0.00 0.00 0.00 37
20260502223503 17 0 0.0 0.0 0.00 0.00 0.00 36
20260502223003 17 135 0.0 1.6 0.00 0.00 0.00 36
20260502222503 18 135 0.0 3.2 0.00 0.00 0.00 36
20260502222003 18 135 0.0 3.2 0.00 0.00 0.00 36
20260502221503 18 90 0.0 3.2 0.00 0.00 0.00 35
20260502221003 18 90 0.0 3.2 0.00 0.00 0.00 34
20260502220503 18 106 0.0 3.2 0.00 0.00 0.00 33
20260502220004 18 134 0.0 3.2 0.00 0.00 0.00 33
20260502215503 18 138 0.0 3.2 0.00 0.00 0.00 32
20260502215003 19 127 0.0 4.8 0.00 0.00 0.00 30
20260502214503 19 156 1.6 4.8 0.00 0.00 0.00 29
20260502214003 19 196 0.0 4.8 0.00 0.00 0.00 29
20260502213503 19 147 0.0 3.2 0.00 0.00 0.00 31
20260502213003 19 141 0.0 3.2 0.00 0.00 0.00 30
20260502212503 19 135 0.0 3.2 0.00 0.00 0.00 31
20260502212004 19 153 0.0 3.2 0.00 0.00 0.00 31
20260502211503 19 219 0.0 3.2 0.00 0.00 0.00 30
20260502211003 20 252 0.0 3.2 0.00 0.00 0.00 31
20260502210503 20 239 0.0 3.2 0.00 0.00 0.00 31
20260502210003 20 161 0.0 3.2 0.00 0.00 0.00 31
20260502205503 20 144 1.6 3.2 0.00 0.00 0.00 32
20260502205003 20 197 0.0 3.2 0.00 0.00 0.00 33
20260502204503 20 142 0.0 3.2 0.00 0.00 0.00 32
20260502204003 20 144 0.0 3.2 0.00 0.00 0.00 32
20260502203503 20 171 0.0 3.2 0.00 0.00 0.00 31
20260502203003 20 129 0.0 3.2 0.00 0.00 0.00 30
20260502202503 20 123 0.0 3.2 0.00 0.00 0.00 30
20260502202003 20 135 0.0 1.6 0.00 0.00 0.00 30
20260502201503 20 135 0.0 1.6 0.00 0.00 0.00 29
20260502201003 20 135 0.0 1.6 0.00 0.00 0.00 29
20260502200503 20 0 0.0 0.0 0.00 0.00 0.00 29
20260502200003 20 0 0.0 0.0 0.00 0.00 0.00 29
20260502195503 20 0 0.0 0.0 0.00 0.00 0.00 29
20260502195003 21 0 0.0 0.0 0.00 0.00 0.00 29
20260502194503 21 0 0.0 0.0 0.00 0.00 0.00 28
20260502194003 21 222 0.0 1.6 0.00 0.00 0.00 27
20260502193503 21 157 0.0 1.6 0.00 0.00 0.00 26
20260502193003 21 143 0.0 1.6 0.00 0.00 0.00 26
20260502192503 21 131 0.0 3.2 0.00 0.00 0.00 26
20260502192003 21 144 0.0 3.2 0.00 0.00 0.00 25
20260502191503 21 164 0.0 3.2 0.00 0.00 0.00 25
20260502191003 21 139 0.0 1.6 0.00 0.00 0.00 24
20260502190503 22 154 0.0 3.2 0.00 0.00 0.00 24
20260502190004 22 141 0.0 4.8 0.00 0.00 0.00 24
20260502185503 22 141 0.0 4.8 0.00 0.00 0.00 24
20260502185003 22 142 0.0 4.8 0.00 0.00 0.00 23
20260502184503 22 113 0.0 3.2 0.00 0.00 0.00 23
20260502184003 22 140 0.0 3.2 0.00 0.00 0.00 23
20260502183503 23 164 0.0 3.2 0.00 0.00 0.00 23
20260502183003 23 166 0.0 3.2 0.00 0.00 0.00 23
20260502182503 23 239 0.0 3.2 0.00 0.00 0.00 24
20260502182003 23 228 0.0 3.2 0.00 0.00 0.00 23
20260502181503 24 272 0.0 3.2 0.00 0.00 0.00 21
20260502181003 24 307 0.0 3.2 0.00 0.00 0.00 18
20260502180503 25 295 0.0 3.2 0.00 0.00 0.00 17
20260502170503 27 181 3.2 6.4 0.00 0.00 0.00 10
20260502164005 28 201 0.0 3.2 0.00 0.00 0.00 10
20260502163505 28 253 0.0 1.6 0.00 0.00 0.00 10
20260502163005 28 270 0.0 3.2 0.00 0.00 0.00 10
20260502162505 28 263 0.0 3.2 0.00 0.00 0.00 10
20260502162005 29 245 0.0 3.2 0.00 0.00 0.00 10
20260502161505 30 359 0.0 3.2 0.00 0.00 0.00 10
20260502161005 30 68 0.0 3.2 0.00 0.00 0.00 10
20260502160505 30 98 0.0 3.2 0.00 0.00 0.00 10
20260502152005 31 74 0.0 4.8 0.00 0.00 0.00 10
20260502151505 31 169 0.0 4.8 0.00 0.00 0.00 10
20260502151005 31 223 0.0 1.6 0.00 0.00 0.00 10
20260502150505 31 202 0.0 3.2 0.00 0.00 0.00 10
20260502130505 30 245 0.0 3.2 0.00 0.00 0.00 10
20260502123505 30 279 1.6 4.8 0.00 0.00 0.00 10
20260502123005 30 255 3.2 4.8 0.00 0.00 0.00 10
20260502122505 30 215 1.6 3.2 0.00 0.00 0.00 10
20260502122005 30 251 0.0 3.2 0.00 0.00 0.00 10
20260502121505 30 218 1.6 3.2 0.00 0.00 0.00 10
20260502121005 29 190 1.6 3.2 0.00 0.00 0.00 10
20260502120505 28 234 0.0 4.8 0.00 0.00 0.00 11
20260502115505 28 269 0.0 3.2 0.00 0.00 0.00 12
20260502115005 27 122 0.0 8.0 0.00 0.00 0.00 12
20260502114505 27 132 0.0 8.0 0.00 0.00 0.00 11
20260502114005 27 150 1.6 4.8 0.00 0.00 0.00 11
20260502113505 28 240 1.6 4.8 0.00 0.00 0.00 10
20260502113005 28 249 0.0 3.2 0.00 0.00 0.00 12
20260502112505 28 143 0.0 6.4 0.00 0.00 0.00 12
20260502112005 28 140 0.0 6.4 0.00 0.00 0.00 12
20260502111505 28 178 0.0 4.8 0.00 0.00 0.00 12
20260502111005 28 156 3.2 4.8 0.00 0.00 0.00 10
20260502110505 28 160 0.0 3.2 0.00 0.00 0.00 13
20260502110005 28 191 0.0 3.2 0.00 0.00 0.00 13
20260502105505 28 182 0.0 3.2 0.00 0.00 0.00 12
20260502105005 27 162 0.0 3.2 0.00 0.00 0.00 14
20260502104505 27 151 0.0 4.8 0.00 0.00 0.00 14
20260502104005 27 160 0.0 4.8 0.00 0.00 0.00 14
20260502103505 26 134 0.0 4.8 0.00 0.00 0.00 17
20260502103005 25 131 0.0 6.4 0.00 0.00 0.00 15
20260502102505 25 137 0.0 6.4 0.00 0.00 0.00 15
20260502102005 25 143 0.0 9.7 0.00 0.00 0.00 16
20260502101505 25 144 0.0 9.7 0.00 0.00 0.00 15
20260502101005 25 168 3.2 6.4 0.00 0.00 0.00 13
20260502100505 25 269 0.0 3.2 0.00 0.00 0.00 16
20260502091505 23 162 0.0 6.4 0.00 0.00 0.00 16
20260502091005 23 172 3.2 6.4 0.00 0.00 0.00 14
20260502090505 22 165 0.0 4.8 0.00 0.00 0.00 18
20260502071505 17 136 0.0 6.4 0.00 0.00 0.00 28
20260502071005 17 191 0.0 3.2 0.00 0.00 0.00 28
20260502070505 16 194 0.0 3.2 0.00 0.00 0.00 31
20260502070005 16 118 0.0 6.4 0.00 0.00 0.00 31
20260502065505 15 124 1.6 6.4 0.00 0.00 0.00 31
20260502065005 15 150 0.0 3.2 0.00 0.00 0.00 33
20260502064505 14 135 0.0 3.2 0.00 0.00 0.00 36
20260502064005 13 104 0.0 4.8 0.00 0.00 0.00 36
20260502063505 13 86 0.0 6.4 0.00 0.00 0.00 36
20260502063005 13 99 0.0 6.4 0.00 0.00 0.00 36
20260502062505 13 107 0.0 8.0 0.00 0.00 0.00 36
20260502062005 13 112 1.6 8.0 0.00 0.00 0.00 36
20260502061505 13 125 1.6 9.7 0.00 0.00 0.00 37
20260502061005 13 133 0.0 9.7 0.00 0.00 0.00 38
20260502060505 12 122 3.2 9.7 0.00 0.00 0.00 38
20260502060005 12 106 3.2 9.7 0.00 0.00 0.00 38
20260502055505 12 122 0.0 6.4 0.00 0.00 0.00 39
20260502055005 12 104 0.0 9.7 0.00 0.00 0.00 39
20260502054505 12 109 3.2 9.7 0.00 0.00 0.00 39
20260502054005 12 117 3.2 9.7 0.00 0.00 0.00 39
20260502053505 12 94 0.0 8.0 0.00 0.00 0.00 39
20260502053005 12 110 0.0 8.0 0.00 0.00 0.00 39
20260502052505 12 125 0.0 6.4 0.00 0.00 0.00 39
20260502052005 11 117 0.0 6.4 0.00 0.00 0.00 39
20260502051505 11 109 0.0 6.4 0.00 0.00 0.00 40
20260502051005 11 92 1.6 3.2 0.00 0.00 0.00 40
20260502050505 11 117 0.0 6.4 0.00 0.00 0.00 40
20260502050005 11 134 0.0 6.4 0.00 0.00 0.00 40
20260502045505 11 118 0.0 6.4 0.00 0.00 0.00 41
20260502045005 11 119 1.6 6.4 0.00 0.00 0.00 41
20260502044505 11 135 1.6 6.4 0.00 0.00 0.00 41
20260502044005 11 146 1.6 3.2 0.00 0.00 0.00 41
20260502043505 11 141 1.6 4.8 0.00 0.00 0.00 41
20260502043005 11 154 0.0 4.8 0.00 0.00 0.00 41
20260502042505 11 141 1.6 4.8 0.00 0.00 0.00 41
20260502042005 11 144 1.6 4.8 0.00 0.00 0.00 41
20260502041504 11 168 0.0 6.4 0.00 0.00 0.00 41
20260502041005 11 178 0.0 6.4 0.00 0.00 0.00 41
20260502040504 11 167 1.6 6.4 0.00 0.00 0.00 41
20260502040005 11 132 1.6 6.4 0.00 0.00 0.00 41
20260502035505 11 120 3.2 8.0 0.00 0.00 0.00 42
20260502035005 11 115 0.0 8.0 0.00 0.00 0.00 42
20260502034504 11 122 0.0 6.4 0.00 0.00 0.00 42
20260502034005 11 123 1.6 6.4 0.00 0.00 0.00 42
20260502033505 11 136 0.0 4.8 0.00 0.00 0.00 43
20260502033004 11 128 0.0 3.2 0.00 0.00 0.00 44
20260502032504 11 127 0.0 6.4 0.00 0.00 0.00 44
20260502032004 11 133 0.0 6.4 0.00 0.00 0.00 44
20260502031504 11 130 1.6 4.8 0.00 0.00 0.00 44
20260502031005 11 108 0.0 3.2 0.00 0.00 0.00 45
20260502030504 11 117 0.0 3.2 0.00 0.00 0.00 46
20260502030005 11 142 0.0 3.2 0.00 0.00 0.00 46
20260502025504 11 139 0.0 3.2 0.00 0.00 0.00 47
20260502025004 11 136 0.0 3.2 0.00 0.00 0.00 47
20260502024504 11 140 0.0 3.2 0.00 0.00 0.00 47
20260502024004 11 135 1.6 3.2 0.00 0.00 0.00 47
20260502023504 11 126 0.0 3.2 0.00 0.00 0.00 48
20260502023005 11 141 0.0 3.2 0.00 0.00 0.00 48
20260502022504 11 174 0.0 3.2 0.00 0.00 0.00 48
20260502022004 11 160 0.0 4.8 0.00 0.00 0.00 48
20260502021504 11 136 1.6 4.8 0.00 0.00 0.00 47
20260502021004 11 135 0.0 4.8 0.00 0.00 0.00 47
20260502020504 11 140 1.6 4.8 0.00 0.00 0.00 48
20260502020004 11 152 1.6 4.8 0.00 0.00 0.00 48
20260502015504 11 146 0.0 3.2 0.00 0.00 0.00 48
20260502015004 11 140 1.6 3.2 0.00 0.00 0.00 47
20260502014504 11 135 1.6 3.2 0.00 0.00 0.00 48
20260502014004 11 133 0.0 3.2 0.00 0.00 0.00 48
20260502013504 11 136 0.0 3.2 0.00 0.00 0.00 47
20260502013004 11 151 0.0 3.2 0.00 0.00 0.00 47
20260502012504 11 147 0.0 3.2 0.00 0.00 0.00 48
20260502012004 11 142 0.0 3.2 0.00 0.00 0.00 47
20260502011504 11 142 0.0 3.2 0.00 0.00 0.00 47
20260502011004 11 135 0.0 1.6 0.00 0.00 0.00 47
20260502010504 11 135 0.0 3.2 0.00 0.00 0.00 45
20260502010005 11 145 0.0 3.2 0.00 0.00 0.00 45
20260502005504 11 145 0.0 3.2 0.00 0.00 0.00 45
20260502005004 11 135 0.0 3.2 0.00 0.00 0.00 44
20260502004504 12 137 0.0 3.2 0.00 0.00 0.00 43
20260502004005 12 140 0.0 3.2 0.00 0.00 0.00 43
20260502003504 12 144 1.6 3.2 0.00 0.00 0.00 43
20260502003004 12 155 0.0 1.6 0.00 0.00 0.00 43
20260502002504 12 152 0.0 3.2 0.00 0.00 0.00 43
20260502002004 12 155 0.0 3.2 0.00 0.00 0.00 43
20260502001504 12 151 0.0 3.2 0.00 0.00 0.00 43
20260502001004 12 137 0.0 1.6 0.00 0.00 0.00 43
20260502000504 12 139 0.0 3.2 0.00 0.00 0.00 41
20260502000005 12 141 0.0 3.2 0.00 0.00 0.00 41
20260501235504 12 180 0.0 1.6 0.00 0.00 0.00 42
20260501235004 12 170 0.0 3.2 0.00 0.00 0.00 42
20260501234504 12 153 0.0 3.2 0.00 0.00 0.00 42
20260501234004 12 134 0.0 3.2 0.00 0.00 0.00 41
20260501233504 12 135 1.6 3.2 0.00 0.00 0.00 40
20260501233004 12 139 0.0 3.2 0.00 0.00 0.00 40
20260501232504 12 141 0.0 3.2 0.00 0.00 0.00 40